Location: The Saddle
(36.8333°N, 80.3417°W)
Time: 05:03:06
(UTC-04:00)

Vanguard 3 - Pass Details

Date: 26 February 2024
Orbit: 510 x 3234 km, 33.3° (Epoch: 24 April)

Event Time Altitude Azimuth Distance (km) Brightness Sun altitude
Rises 00:48:41 0° 277° (W) 7,177 12.0 -61.9°
Reaches altitude 10° 00:53:46 10° 276° (W) 6,039 11.5 -61.7°
Enters shadow 00:55:06 13° 275° (W) 5,733 11.3 -61.7°
